CDT,Max TemperatureF,Mean TemperatureF,Min TemperatureF,Max Dew PointF,MeanDew PointF,Min DewpointF,Max Humidity, Mean Humidity, Min Humidity, Max Sea Level PressureIn, Mean Sea Level PressureIn, Min Sea Level PressureIn, Max VisibilityMiles, Mean VisibilityMiles, Min VisibilityMiles, Max Wind SpeedMPH, Mean Wind SpeedMPH, Max Gust SpeedMPH,PrecipitationIn, CloudCover, Events, WindDirDegrees
2013-7-1,85,72,59,56,52,47,87,58,29,30.14,30.09,30.05,10,10,7,18,10,24,0.00,1,,16
2013-7-2,87,74,60,56,50,41,72,46,20,30.13,30.08,30.03,10,10,10,18,8,25,0.00,1,,12
2013-7-3,86,73,60,55,51,48,78,53,27,30.11,30.03,29.95,10,10,10,17,5,21,0.00,5,,160
2013-7-4,92,75,58,59,55,51,78,53,27,30.00,29.95,29.88,10,10,10,20,9,28,0.00,4,,154
2013-7-5,93,80,66,62,59,55,81,56,30,29.94,29.88,29.81,10,10,10,33,16,39,0.00,4,,161
2013-7-6,84,78,72,70,65,61,84,71,58,29.91,29.85,29.81,10,10,10,24,14,33,0.02,5,Rain,155
2013-7-7,100,88,75,66,64,61,69,49,29,29.94,29.89,29.85,10,10,10,26,17,33,0.01,4,Rain,178
2013-7-8,102,89,76,69,66,62,69,49,29,30.01,29.95,29.89,10,10,10,24,13,31,0.00,4,,178
2013-7-9,107,92,77,70,67,61,74,50,25,29.97,29.90,29.80,10,10,10,22,14,31,0.01,4,Rain,201
2013-7-10,102,89,75,73,67,64,79,55,31,29.97,29.93,29.88,10,10,10,24,8,28,0.01,4,Rain,72
2013-7-11,94,84,73,72,67,63,74,58,41,30.08,29.96,29.87,10,10,10,23,12,28,0.13,5,Rain-Thunderstorm,104
2013-7-12,101,87,73,71,67,64,73,53,33,29.94,29.90,29.85,10,10,10,24,12,29,0.00,2,,148
2013-7-13,102,89,75,71,69,67,82,60,37,29.94,29.90,29.83,10,10,10,22,13,31,0.00,3,,161
2013-7-14,83,76,69,72,70,66,100,81,61,30.06,29.99,29.88,10,9,2,28,8,35,0.62,7,Rain-Thunderstorm,206
2013-7-15,81,74,66,71,66,62,93,79,64,30.18,30.10,30.06,10,9,2,24,7,31,0.51,5,Rain,109
2013-7-16,90,78,66,69,67,64,93,70,47,30.26,30.19,30.16,10,10,10,24,8,39,T,5,,133
2013-7-17,91,81,70,72,70,68,100,76,52,30.29,30.23,30.16,10,10,10,14,6,,0.06,4,,142
2013-7-18,93,81,69,72,69,65,100,72,44,30.18,30.10,29.98,10,10,10,21,9,26,0.00,3,,190
2013-7-19,96,83,69,70,67,63,97,68,38,30.00,29.93,29.84,10,10,10,18,10,23,0.00,2,,192
2013-7-20,98,85,72,72,67,60,84,57,29,29.92,29.86,29.77,10,10,4,25,12,30,0.52,6,Rain-Thunderstorm,187
2013-7-21,87,79,70,73,70,67,97,76,55,29.90,29.84,29.77,10,10,2,18,10,23,0.51,5,Rain-Thunderstorm,148
2013-7-22,91,82,72,74,70,59,93,71,49,29.90,29.80,29.76,10,10,5,23,8,28,0.21,6,Rain-Thunderstorm,162
2013-7-23,92,81,69,71,68,59,100,75,49,29.90,29.83,29.75,10,9,2,41,10,54,1.02,6,Rain-Thunderstorm,95
2013-7-24,89,79,69,72,67,59,100,70,39,30.05,29.98,29.87,10,10,8,16,7,21,T,5,Rain-Thunderstorm,35
2013-7-25,88,79,69,71,68,64,90,75,59,30.04,30.00,29.97,10,10,10,20,8,24,0.04,6,Rain,163
2013-7-26,87,78,68,71,67,60,100,71,42,30.06,30.01,29.95,10,9,2,26,10,31,2.13,5,Rain-Thunderstorm,15
2013-7-27,80,72,63,61,58,55,78,65,51,30.10,30.04,29.95,10,10,8,17,8,20,0.22,5,Rain-Thunderstorm,67
2013-7-28,66,64,61,63,62,59,100,92,84,30.05,30.01,29.96,10,9,3,18,10,25,1.65,8,Rain-Thunderstorm,106
2013-7-29,85,76,66,73,69,60,93,79,65,29.98,29.91,29.82,10,10,10,24,12,30,0.02,8,Rain-Thunderstorm,136
2013-7-30,82,77,72,72,71,69,100,85,69,30.07,30.00,29.91,10,8,1,14,5,16,0.00,7,,3
2013-7-31,87,78,68,70,68,66,97,74,50,30.16,30.09,30.03,10,8,1,12,5,20,0.00,4,,35